Location: Escondido Hill
(38.9119°N, 104.7815°W)
Time: 05:23:45
(UTC-06:00)

Tiangong 2 - Visible Passes

Search period start: 19 August 2018 00:00
Search period end: 29 August 2018 00:00
Orbit: 384 x 395 km, 42.8° (Epoch: 19 August)

Date Brightness Start Highest point End Pass type
(mag) Time Alt. Az. Time Alt. Az. Time Alt. Az.
19 Aug 4.2 03:39:14 12° E 03:39:14 12° E 03:39:36 10° E visible
19 Aug 1.3 05:11:34 21° W 05:13:32 63° NNW 05:16:43 10° ENE visible
20 Aug 1.8 04:16:20 52° ENE 04:16:20 52° ENE 04:18:51 10° ENE visible
21 Aug 1.9 04:53:24 28° WNW 04:54:42 46° N 04:57:48 10° ENE visible
22 Aug 3.1 03:58:09 28° NE 03:58:09 28° NE 03:59:54 10° ENE visible
22 Aug 2.3 05:30:52 10° WNW 05:33:53 39° N 05:36:55 10° ENE visible
23 Aug 2.1 04:35:16 35° NNW 04:35:52 39° N 04:38:54 10° ENE visible
24 Aug 4.1 03:40:05 16° ENE 03:40:05 16° ENE 03:40:56 10° ENE visible
24 Aug 2.1 05:12:25 13° WNW 05:15:02 44° N 05:18:08 10° E visible
25 Aug 2.4 04:17:19 38° NNE 04:17:19 38° NNE 04:20:03 10° ENE visible
25 Aug 1.1 05:50:53 10° WNW 05:54:05 87° NNE 05:57:17 10° ESE visible
26 Aug 1.5 04:54:40 27° NW 04:56:08 59° NNE 04:59:17 10° E visible
27 Aug 3.5 03:59:50 22° ENE 03:59:50 22° ENE 04:01:13 10° E visible
27 Aug 1.3 05:32:10 12° WNW 05:35:02 53° SSW 05:38:10 10° SE visible
28 Aug 1.2 04:37:31 66° ESE 04:37:31 66° ESE 04:40:19 10° ESE visible
